SCP
0 0 0 0 0 0 0 0 0 0 0 0 0 0 0 0 0 0 0 0 0 0 0 0 0 0 0 0 0 0 0 0 0 0 0 0 0 0 0 0 0 0 0
0 0 0 0 0 0 0 0 0 0 0 0 0 0 0 0 0 0 0 0 0 0 0 0 0 0 0 0 0 0 0 0 0 0 0 0 0 0 0 0 0 0 0
0 0 0 0 0 0 0 0 0 0 0 0 0 0 0 0 0 0 0 0 0 0 0 0 0 0 0 0 0 0 0 0 0 0 0 0 0 0 0 0 0 0 0
0 0 0 0 0 0 0 0 0 0 0 0 0 0 0 0 0 0 0 0 0 0 0 -0 -0 0 0 -0 -0 0 -0 0 0 0 0 0 0 0 0 0 0 0 0
0 0 0 0 0 0 0 0 0 0 0 0 0 0 0 0 0 0 0 0 0 0 0 0 -0 0 0 0 0 -0 -0 0 0 0 0 0 -0 0 0 0 0 0 0
0 0 0 0 0 0 0 0 0 0 0 0 0 0 0 0 0 0 0 0 0 0 0 0 0 0 0 0 0 -0 0 0 0 0 0 0 0 0 0 0 0 0 0
0 0 0 0 0 0 0 0 0 0 0 0 0 0 0 0 0 0 0 0 0 0 0 0 0 0 0 -0 -0 -0 0 0 0 0 0 0 0 0 0 0 0 0 0
0 0 0 0 0 0 0 0 0 0 0 0 0 0 0 0 0 0 0 0 0 0 0 0 0 0 0 0 0 0 -0 -0 -0 0 0 0 0 0 0 0 0 0 0
0 0 0 0 0 0 0 0 0 0 0 0 0 0 0 0 0 0 0 0 0 0 0 0 0 0 0 0 0 0 0 0 0 0 0 0 0 0 0 0 0 0 0
0 0 0 0 0 0 0 0 0 0 0 0 0 0 0 0 0 0 0 0 0 0 0 0 0 0 0 0 0 0 0 0 0 0 0 0 0 0 0 0 0 0 0
0 0 0 0 0 0 0 0 0 0 0 0 0 0 0 0 0 0 0 0 0 0 0 0 0 0 0 0 0 0 0 0 0 0 0 0 0 0 0 0 0 0 0
0 0 0 0 0 0 0 0 0 0 0 0 0 0 0 0 0 0 0 0 0 0 0 0 0 0 0 0 0 0 0 0 0 0 0 0 0 0 0 0 0 0 0
0 0 0 0 0 0 0 0 0 0 0 0 0 0 0 0 0 0 0 0 0 0 0 0 0 0 0 0 0 0 0 0 0 0 0 0 0 0 0 0 0 0 0
0 0 0 0 0 0 0 0 0 0 0 0 0 0 0 0 0 0 0 0 0 0 0 0 0 0 0 0 0 0 0 0 0 0 0 0 0 0 0 0 0 0 0
0 0 0 0 0 0 0 0 0 0 0 0 0 0 0 0 0 0 0 0 0 0 0 0 0 0 0 0 0 0 0 0 0 0 0 0 0 0 0 0 0 0 0
0 0 0 0 0 0 0 0 0 0 0 0 0 0 0 0 0 0 0 0 0 0 0 0 0 0 0 0 0 0 0 0 0 0 0 0 0 0 0 0 0 0 0
0 0 0 0 0 0 0 0 0 0 0 0 0 0 0 0 0 0 0 0 0 0 0 0 0 0 0 0 0 0 0 0 0 0 0 0 0 0 0 0 0 0 0
0 0 0 0 0 0 0 0 0 0 0 0 0 0 0 0 0 0 0 0 0 0 0 0 0 0 0 0 0 0 0 0 0 0 0 0 0 0 0 0 0 0 0
0 0 0 0 0 0 0 0 0 0 0 0 0 0 0 0 0 0 0 0 0 0 0 0 0 0 0 0 0 0 0 0 0 0 0 0 0 0 0 0 0 0 0
0 0 0 0 0 0 0 0 0 0 0 0 0 0 0 0 0 0 0 0 0 0 0 0 0 0 0 0 0 0 0 0 0 0 0 0 0 0 0 0 0 0 0
0 0 0 0 0 0 0 0 0 0 0 0 0 0 0 0 0 0 0 0 0 0 0 0 0 0 0 0 0 0 0 0 0 0 0 0 0 0 0 0 0 0 0
0 0 0 0 0 0 0 0 0 0 0 0 0 0 0 0 0 0 0 0 0 0 0 0 0 0 0 0 0 0 0 0 0 0 0 0 0 0 0 0 0 0 0
0 0 0 0 0 0 0 0 0 0 0 0 0 0 0 0 0 0 0 0 0 0 0 0 0 0 0 0 0 0 0 0 0 0 0 0 0 0 0 0 0 0 0
0 0 0 0 0 0 0 0 0 0 0 0 0 0 0 0 0 0 0 0 0 0 0 0 0 0 0 0 0 0 0 0 0 0 0 0 0 0 0 0 -0 0 -0
0 0 0 0 0 0 0 0 0 0 0 0 0 0 0 0 0 0 0 0 0 0 0 0 0 0 0 0 0 0 0 0 0 0 0 0 0 -0 0 0 0 -0 -0
0 0 0 0 0 0 0 0 0 0 0 0 0 0 0 0 0 0 0 0 0 0 0 0 0 0 0 0 0 0 0 0 0 0 0 0 0 0 0 0 -0 -0 -0
Wind_Speed_500mb
2 8 9 19 16 13 13 19 17 8 7 4 11 13 12 12 11 10 8 5 4 6 5 7 15 20 28 31 28 23 22 22 24 30 32 34 37 42 47 49 50 51 49
11 13 13 17 20 15 18 28 12 4 6 1 5 10 8 9 10 9 3 4 9 13 9 15 22 25 25 31 21 24 20 20 23 27 28 30 31 34 37 41 45 48 50
16 15 17 17 21 16 20 27 7 2 3 6 5 4 8 9 9 3 2 7 8 11 16 24 23 21 25 25 24 23 21 26 29 30 28 31 31 33 33 37 39 43 45
13 11 15 16 19 20 22 23 7 4 5 5 12 8 9 8 4 2 6 7 11 15 19 15 18 19 22 21 21 25 24 38 39 34 29 28 31 33 33 34 36 37 40
14 12 18 20 20 22 17 18 6 6 5 5 4 13 12 7 2 6 6 12 13 13 12 17 22 24 24 22 21 23 24 26 34 34 34 30 28 29 31 34 34 34 40
17 21 23 18 21 18 12 13 10 8 11 13 8 5 12 9 10 6 8 11 13 13 17 22 27 27 28 31 31 31 31 32 33 35 33 39 36 34 33 34 35 37 42
15 23 22 15 16 11 13 11 15 13 8 16 12 13 7 17 18 11 21 13 13 17 23 27 31 34 33 36 41 41 40 40 40 38 39 38 38 42 41 36 35 38 41
14 18 10 12 12 14 12 10 12 15 16 16 16 9 5 7 17 23 30 27 13 24 27 28 31 33 35 41 43 41 44 41 43 44 43 45 44 43 45 44 37 38 40
10 9 6 8 11 12 10 9 9 10 11 12 16 11 8 6 33 24 33 23 34 31 33 33 34 35 38 43 45 47 46 46 44 48 47 50 53 49 47 48 50 48 46
8 8 7 10 12 13 11 10 9 10 12 13 15 14 16 22 24 28 29 40 35 32 27 24 26 29 30 31 35 38 41 41 44 46 49 51 53 53 53 54 53 50 49
15 18 15 12 11 12 9 9 10 13 16 20 23 25 28 27 30 31 44 43 32 29 27 28 30 28 27 28 31 34 39 43 45 48 51 56 57 60 60 61 61 60 58
15 19 21 14 10 13 10 8 10 16 20 26 27 29 31 29 30 29 34 36 40 40 39 41 41 42 39 41 44 47 47 50 53 54 54 54 57 61 59 59 62 66 64
17 18 17 15 11 14 10 14 19 23 25 28 29 29 23 21 24 25 29 36 43 52 52 50 45 37 46 49 51 50 51 55 59 62 60 61 63 63 63 64 63 63 66
16 17 12 13 13 7 12 20 28 30 32 32 26 25 30 28 29 28 30 32 41 50 53 50 46 49 50 50 50 49 50 53 56 56 60 65 68 68 66 68 68 65 67
22 20 17 11 7 13 23 29 28 33 36 34 30 33 29 28 26 27 31 28 29 28 47 47 50 49 50 49 47 49 52 55 56 58 61 64 66 71 71 70 68 70 70
17 17 15 14 16 25 27 28 31 31 33 32 35 33 27 28 30 30 27 27 26 25 29 49 52 52 51 49 47 52 49 51 52 53 57 57 58 61 65 69 72 70 72
22 23 18 19 24 30 24 31 37 33 31 41 38 34 32 28 26 27 26 28 24 32 44 53 57 55 55 55 57 55 52 55 50 44 44 49 53 56 60 63 65 68 70
21 20 18 22 25 28 33 34 30 31 43 34 33 32 28 25 25 27 26 27 28 37 48 59 64 60 57 56 61 59 60 62 58 60 58 51 49 53 55 57 62 63 65
14 19 23 26 31 35 33 30 30 37 29 29 28 29 29 29 28 28 29 33 35 38 47 59 59 56 55 55 61 63 67 66 62 64 69 59 50 44 42 47 57 60 61
20 22 27 30 31 31 30 29 33 25 24 23 23 27 29 33 35 34 34 35 36 40 48 55 51 48 52 58 66 75 87 73 79 80 79 71 53 43 43 41 51 57 59
26 31 29 28 29 30 29 28 25 23 19 21 24 26 31 35 41 43 37 34 33 43 46 49 50 52 59 65 70 77 85 76 79 82 89 80 60 51 40 36 41 47 52
29 31 26 27 31 28 26 24 22 19 19 25 30 30 33 36 39 37 34 32 34 41 45 48 54 58 62 66 69 78 84 72 86 75 79 70 50 48 37 34 32 32 42
27 24 25 27 26 24 21 20 22 21 25 31 37 43 43 39 36 34 37 36 39 41 47 49 55 59 64 65 67 78 77 70 77 80 72 70 53 44 29 33 32 37 40
20 23 27 26 24 17 19 23 28 29 32 37 41 46 50 47 39 38 38 44 45 47 42 47 55 61 61 65 65 73 70 69 71 70 61 66 43 34 36 36 38 37 46
22 24 25 25 23 20 22 28 33 37 42 44 44 45 49 51 41 36 42 45 46 42 40 49 55 57 60 64 63 63 58 63 67 72 56 43 45 53 47 40 33 37 46
26 28 24 23 27 30 29 32 39 44 47 47 43 43 45 44 41 37 40 40 45 38 46 50 53 58 57 52 55 46 48 53 54 59 52 60 52 48 38 54 47 57 25
Wind_Direction_500mb
328 33 30 13 16 358 359 349 345 313 321 40 81 70 110 140 125 147 161 190 273 279 290 311 320 329 326 329 325 322 305 295 285 275 270 269 268 266 264 261 257 256 257
21 21 12 7 11 7 1 353 343 322 330 206 124 93 105 140 145 139 142 289 277 279 279 302 306 312 324 332 324 319 311 314 309 296 285 276 271 268 266 263 260 259 256
7 11 2 1 7 14 4 3 37 66 54 203 184 115 136 140 150 197 308 314 280 277 294 310 311 316 322 330 324 311 307 321 312 308 303 286 278 272 269 266 263 260 259
348 348 346 336 5 2 2 4 68 97 77 125 192 182 170 158 150 296 315 309 307 306 314 299 313 316 325 329 325 318 307 308 298 301 301 301 290 281 276 270 265 261 262
332 325 334 330 337 346 359 21 63 44 47 26 219 195 175 171 107 76 341 326 318 311 306 310 309 317 325 323 325 323 316 320 306 298 290 293 294 290 282 277 269 258 257
327 334 327 326 331 337 2 30 51 347 9 21 42 139 188 156 168 205 342 312 286 300 302 302 300 297 302 305 305 304 307 307 311 310 304 284 285 285 283 275 268 261 258
312 331 320 321 335 345 359 31 38 41 14 39 110 97 137 200 219 225 353 302 298 273 282 286 296 294 282 288 291 289 293 296 294 299 297 295 289 283 280 279 268 261 263
301 320 324 326 345 350 329 343 19 44 23 21 25 36 40 201 226 247 299 320 301 302 304 287 287 283 282 284 287 286 280 288 282 288 291 293 291 290 277 273 268 265 262
291 297 2 1 1 348 333 332 6 33 38 16 4 9 351 305 309 310 318 320 316 313 310 306 299 293 289 288 283 276 279 281 274 279 285 287 286 287 281 276 270 270 265
241 269 305 336 345 342 330 305 329 344 351 349 341 333 321 309 309 310 311 318 314 322 320 318 312 306 301 297 290 287 284 278 277 277 283 285 282 281 282 275 270 268 266
248 256 269 291 323 328 297 305 315 329 334 334 327 320 318 313 306 304 308 309 319 333 330 331 329 325 320 306 302 294 286 280 281 278 280 283 285 279 276 275 271 267 263
269 265 263 276 326 338 315 311 324 331 328 323 319 315 309 305 302 300 295 302 316 324 327 326 325 318 310 304 299 294 289 281 276 280 281 279 279 277 276 274 270 266 260
271 262 254 258 303 325 303 316 323 327 320 317 312 302 293 289 290 291 291 301 308 319 323 326 329 326 319 311 306 300 293 286 281 279 279 272 272 276 272 278 274 264 260
262 249 254 272 291 288 312 308 313 310 301 300 296 296 292 284 286 287 289 296 307 314 319 328 331 328 323 320 317 309 303 296 291 287 277 272 272 274 277 278 271 266 259
261 255 267 278 245 286 299 300 292 301 299 299 295 303 292 278 282 287 294 295 308 314 321 331 331 330 326 324 325 320 308 302 296 291 287 279 275 274 274 271 271 265 260
247 258 269 267 274 292 288 298 295 301 297 297 293 293 281 282 290 297 296 302 311 319 319 327 334 332 328 324 321 320 315 315 304 295 293 287 283 279 275 273 270 263 258
246 257 265 261 283 291 289 295 301 306 297 302 295 290 287 292 300 302 298 304 297 318 324 328 331 332 327 327 325 326 321 319 319 304 302 292 283 279 273 270 267 265 258
252 262 259 280 286 286 287 298 296 298 304 298 293 285 284 291 300 303 293 303 303 311 321 324 327 328 327 329 327 328 327 325 320 322 315 300 295 286 278 271 266 265 256
232 242 269 281 281 290 285 292 296 305 301 302 300 292 288 286 289 301 292 296 300 308 320 320 322 328 332 338 333 331 327 321 322 316 316 309 295 296 285 278 271 261 252
248 262 284 277 277 277 282 296 305 303 307 313 314 304 291 285 286 290 287 295 295 309 317 321 323 326 332 337 335 333 330 327 321 322 323 319 303 287 286 284 279 269 253
252 277 285 290 279 275 288 301 302 301 311 324 329 322 300 291 292 292 287 291 297 304 315 319 320 321 327 332 332 331 329 327 325 322 320 319 303 287 279 283 280 262 253
268 282 275 282 291 283 290 300 302 293 316 323 332 330 322 308 300 291 283 282 292 305 312 316 318 319 323 325 325 329 327 324 317 320 322 316 313 288 289 293 288 268 254
277 272 291 300 295 286 289 301 302 297 304 313 322 327 326 321 309 294 287 282 283 296 306 305 307 315 316 320 320 324 322 321 316 319 327 318 314 299 306 299 292 264 277
276 291 309 303 291 284 280 294 298 301 305 308 311 317 318 320 312 298 285 282 286 294 303 299 304 307 311 317 317 315 317 322 319 326 331 313 329 317 315 301 298 281 278
301 299 298 294 285 286 287 288 292 298 303 302 302 307 314 314 310 297 286 291 294 304 309 311 310 310 311 313 313 312 320 322 323 325 337 324 318 305 309 316 309 295 286
304 295 291 288 283 279 280 285 290 296 299 305 305 308 314 308 305 298 286 291 298 310 316 320 317 309 309 316 317 312 317 321 325 322 330 324 322 327 311 315 319 300 239
Wind_Speed_850mb
2 8 9 19 16 13 13 19 17 8 7 4 11 13 12 12 11 10 8 5 4 6 5 7 15 20 28 31 28 23 22 22 24 30 32 34 37 42 47 49 50 51 49
11 13 13 17 20 15 18 28 12 4 6 1 5 10 8 9 10 9 3 4 9 13 9 15 22 25 25 31 21 24 20 20 23 27 28 30 31 34 37 41 45 48 50
16 15 17 17 21 16 20 27 7 2 3 6 5 4 8 9 9 3 2 7 8 11 16 24 23 21 25 25 24 23 21 26 29 30 28 31 31 33 33 37 39 43 45
13 11 15 16 19 20 22 23 7 4 5 5 12 8 9 8 4 2 6 7 11 15 19 15 18 19 22 21 21 25 24 38 39 34 29 28 31 33 33 34 36 37 40
14 12 18 20 20 22 17 18 6 6 5 5 4 13 12 7 2 6 6 12 13 13 12 17 22 24 24 22 21 23 24 26 34 34 34 30 28 29 31 34 34 34 40
17 21 23 18 21 18 12 13 10 8 11 13 8 5 12 9 10 6 8 11 13 13 17 22 27 27 28 31 31 31 31 32 33 35 33 39 36 34 33 34 35 37 42
15 23 22 15 16 11 13 11 15 13 8 16 12 13 7 17 18 11 21 13 13 17 23 27 31 34 33 36 41 41 40 40 40 38 39 38 38 42 41 36 35 38 41
14 18 10 12 12 14 12 10 12 15 16 16 16 9 5 7 17 23 30 27 13 24 27 28 31 33 35 41 43 41 44 41 43 44 43 45 44 43 45 44 37 38 40
10 9 6 8 11 12 10 9 9 10 11 12 16 11 8 6 33 24 33 23 34 31 33 33 34 35 38 43 45 47 46 46 44 48 47 50 53 49 47 48 50 48 46
8 8 7 10 12 13 11 10 9 10 12 13 15 14 16 22 24 28 29 40 35 32 27 24 26 29 30 31 35 38 41 41 44 46 49 51 53 53 53 54 53 50 49
15 18 15 12 11 12 9 9 10 13 16 20 23 25 28 27 30 31 44 43 32 29 27 28 30 28 27 28 31 34 39 43 45 48 51 56 57 60 60 61 61 60 58
15 19 21 14 10 13 10 8 10 16 20 26 27 29 31 29 30 29 34 36 40 40 39 41 41 42 39 41 44 47 47 50 53 54 54 54 57 61 59 59 62 66 64
17 18 17 15 11 14 10 14 19 23 25 28 29 29 23 21 24 25 29 36 43 52 52 50 45 37 46 49 51 50 51 55 59 62 60 61 63 63 63 64 63 63 66
16 17 12 13 13 7 12 20 28 30 32 32 26 25 30 28 29 28 30 32 41 50 53 50 46 49 50 50 50 49 50 53 56 56 60 65 68 68 66 68 68 65 67
22 20 17 11 7 13 23 29 28 33 36 34 30 33 29 28 26 27 31 28 29 28 47 47 50 49 50 49 47 49 52 55 56 58 61 64 66 71 71 70 68 70 70
17 17 15 14 16 25 27 28 31 31 33 32 35 33 27 28 30 30 27 27 26 25 29 49 52 52 51 49 47 52 49 51 52 53 57 57 58 61 65 69 72 70 72
22 23 18 19 24 30 24 31 37 33 31 41 38 34 32 28 26 27 26 28 24 32 44 53 57 55 55 55 57 55 52 55 50 44 44 49 53 56 60 63 65 68 70
21 20 18 22 25 28 33 34 30 31 43 34 33 32 28 25 25 27 26 27 28 37 48 59 64 60 57 56 61 59 60 62 58 60 58 51 49 53 55 57 62 63 65
14 19 23 26 31 35 33 30 30 37 29 29 28 29 29 29 28 28 29 33 35 38 47 59 59 56 55 55 61 63 67 66 62 64 69 59 50 44 42 47 57 60 61
20 22 27 30 31 31 30 29 33 25 24 23 23 27 29 33 35 34 34 35 36 40 48 55 51 48 52 58 66 75 87 73 79 80 79 71 53 43 43 41 51 57 59
26 31 29 28 29 30 29 28 25 23 19 21 24 26 31 35 41 43 37 34 33 43 46 49 50 52 59 65 70 77 85 76 79 82 89 80 60 51 40 36 41 47 52
29 31 26 27 31 28 26 24 22 19 19 25 30 30 33 36 39 37 34 32 34 41 45 48 54 58 62 66 69 78 84 72 86 75 79 70 50 48 37 34 32 32 42
27 24 25 27 26 24 21 20 22 21 25 31 37 43 43 39 36 34 37 36 39 41 47 49 55 59 64 65 67 78 77 70 77 80 72 70 53 44 29 33 32 37 40
20 23 27 26 24 17 19 23 28 29 32 37 41 46 50 47 39 38 38 44 45 47 42 47 55 61 61 65 65 73 70 69 71 70 61 66 43 34 36 36 38 37 46
22 24 25 25 23 20 22 28 33 37 42 44 44 45 49 51 41 36 42 45 46 42 40 49 55 57 60 64 63 63 58 63 67 72 56 43 45 53 47 40 33 37 46
26 28 24 23 27 30 29 32 39 44 47 47 43 43 45 44 41 37 40 40 45 38 46 50 53 58 57 52 55 46 48 53 54 59 52 60 52 48 38 54 47 57 25
Wind_Direction_850mb
328 33 30 13 16 358 359 349 345 313 321 40 81 70 110 140 125 147 161 190 273 279 290 311 320 329 326 329 325 322 305 295 285 275 270 269 268 266 264 261 257 256 257
21 21 12 7 11 7 1 353 343 322 330 206 124 93 105 140 145 139 142 289 277 279 279 302 306 312 324 332 324 319 311 314 309 296 285 276 271 268 266 263 260 259 256
7 11 2 1 7 14 4 3 37 66 54 203 184 115 136 140 150 197 308 314 280 277 294 310 311 316 322 330 324 311 307 321 312 308 303 286 278 272 269 266 263 260 259
348 348 346 336 5 2 2 4 68 97 77 125 192 182 170 158 150 296 315 309 307 306 314 299 313 316 325 329 325 318 307 308 298 301 301 301 290 281 276 270 265 261 262
332 325 334 330 337 346 359 21 63 44 47 26 219 195 175 171 107 76 341 326 318 311 306 310 309 317 325 323 325 323 316 320 306 298 290 293 294 290 282 277 269 258 257
327 334 327 326 331 337 2 30 51 347 9 21 42 139 188 156 168 205 342 312 286 300 302 302 300 297 302 305 305 304 307 307 311 310 304 284 285 285 283 275 268 261 258
312 331 320 321 335 345 359 31 38 41 14 39 110 97 137 200 219 225 353 302 298 273 282 286 296 294 282 288 291 289 293 296 294 299 297 295 289 283 280 279 268 261 263
301 320 324 326 345 350 329 343 19 44 23 21 25 36 40 201 226 247 299 320 301 302 304 287 287 283 282 284 287 286 280 288 282 288 291 293 291 290 277 273 268 265 262
291 297 2 1 1 348 333 332 6 33 38 16 4 9 351 305 309 310 318 320 316 313 310 306 299 293 289 288 283 276 279 281 274 279 285 287 286 287 281 276 270 270 265
241 269 305 336 345 342 330 305 329 344 351 349 341 333 321 309 309 310 311 318 314 322 320 318 312 306 301 297 290 287 284 278 277 277 283 285 282 281 282 275 270 268 266
248 256 269 291 323 328 297 305 315 329 334 334 327 320 318 313 306 304 308 309 319 333 330 331 329 325 320 306 302 294 286 280 281 278 280 283 285 279 276 275 271 267 263
269 265 263 276 326 338 315 311 324 331 328 323 319 315 309 305 302 300 295 302 316 324 327 326 325 318 310 304 299 294 289 281 276 280 281 279 279 277 276 274 270 266 260
271 262 254 258 303 325 303 316 323 327 320 317 312 302 293 289 290 291 291 301 308 319 323 326 329 326 319 311 306 300 293 286 281 279 279 272 272 276 272 278 274 264 260
262 249 254 272 291 288 312 308 313 310 301 300 296 296 292 284 286 287 289 296 307 314 319 328 331 328 323 320 317 309 303 296 291 287 277 272 272 274 277 278 271 266 259
261 255 267 278 245 286 299 300 292 301 299 299 295 303 292 278 282 287 294 295 308 314 321 331 331 330 326 324 325 320 308 302 296 291 287 279 275 274 274 271 271 265 260
247 258 269 267 274 292 288 298 295 301 297 297 293 293 281 282 290 297 296 302 311 319 319 327 334 332 328 324 321 320 315 315 304 295 293 287 283 279 275 273 270 263 258
246 257 265 261 283 291 289 295 301 306 297 302 295 290 287 292 300 302 298 304 297 318 324 328 331 332 327 327 325 326 321 319 319 304 302 292 283 279 273 270 267 265 258
252 262 259 280 286 286 287 298 296 298 304 298 293 285 284 291 300 303 293 303 303 311 321 324 327 328 327 329 327 328 327 325 320 322 315 300 295 286 278 271 266 265 256
232 242 269 281 281 290 285 292 296 305 301 302 300 292 288 286 289 301 292 296 300 308 320 320 322 328 332 338 333 331 327 321 322 316 316 309 295 296 285 278 271 261 252
248 262 284 277 277 277 282 296 305 303 307 313 314 304 291 285 286 290 287 295 295 309 317 321 323 326 332 337 335 333 330 327 321 322 323 319 303 287 286 284 279 269 253
252 277 285 290 279 275 288 301 302 301 311 324 329 322 300 291 292 292 287 291 297 304 315 319 320 321 327 332 332 331 329 327 325 322 320 319 303 287 279 283 280 262 253
268 282 275 282 291 283 290 300 302 293 316 323 332 330 322 308 300 291 283 282 292 305 312 316 318 319 323 325 325 329 327 324 317 320 322 316 313 288 289 293 288 268 254
277 272 291 300 295 286 289 301 302 297 304 313 322 327 326 321 309 294 287 282 283 296 306 305 307 315 316 320 320 324 322 321 316 319 327 318 314 299 306 299 292 264 277
276 291 309 303 291 284 280 294 298 301 305 308 311 317 318 320 312 298 285 282 286 294 303 299 304 307 311 317 317 315 317 322 319 326 331 313 329 317 315 301 298 281 278
301 299 298 294 285 286 287 288 292 298 303 302 302 307 314 314 310 297 286 291 294 304 309 311 310 310 311 313 313 312 320 322 323 325 337 324 318 305 309 316 309 295 286
304 295 291 288 283 279 280 285 290 296 299 305 305 308 314 308 305 298 286 291 298 310 316 320 317 309 309 316 317 312 317 321 325 322 330 324 322 327 311 315 319 300 239